FW9069 Weather Reports


Display with metric or nautical units.
time (UTC)temp
F
wind
direction
speed
MPH
gust
MPH
rain 1hr
in
rain 24hr
in
rain mn
in
humidity
%
barometer
mb
20220525163337 58 238 3.0 7.0 0.00 0.00 0.00 83 1017.9
20220525161828 58 231 3.0 6.0 0.00 0.00 0.00 85 1017.9
20220525160334 57 196 3.0 8.0 0.00 0.00 0.00 86 1017.9
20220525154827 57 234 4.0 9.0 0.00 0.00 0.00 86 1017.7
20220525153317 56 172 2.0 6.0 0.00 0.00 0.00 88 1017.8
20220525151826 56 221 3.0 5.0 0.00 0.00 0.00 88 1018.0
20220525150331 55 202 4.0 7.0 0.00 0.00 0.00 89 1017.8
20220525144817 55 175 3.0 7.0 0.00 0.00 0.00 90 1017.6
20220525143324 55 223 2.0 7.0 0.00 0.00 0.00 91 1017.5
20220525141829 54 206 1.0 3.0 0.00 0.00 0.00 90 1017.6
20220525140320 54 206 1.0 3.0 0.00 0.00 0.00 91 1017.6
20220525134829 53 177 1.0 2.0 0.00 0.00 0.00 91 1017.6
20220525133339 53 177 1.0 3.0 0.00 0.00 0.00 91 1017.4
20220525131831 53 177 1.0 2.0 0.00 0.00 0.00 90 1017.2
20220525130321 53 179 0.0 2.0 0.00 0.00 0.00 89 1017.1
20220525124813 54 179 0.0 1.0 0.00 0.00 0.00 88 1017.2
20220525123331 54 174 0.0 3.0 0.00 0.00 0.00 88 1017.2
20220525121821 54 285 0.0 1.0 0.00 0.00 0.00 87 1017.0
20220525120313 54 285 0.0 3.0 0.00 0.00 0.00 87 1016.9
20220525114831 54 287 3.0 4.0 0.00 0.00 0.00 86 1016.8
20220525113323 54 281 2.0 4.0 0.00 0.00 0.00 86 1016.7
20220525111814 53 268 3.0 8.0 0.00 0.00 0.00 86 1016.9
20220525110330 54 256 4.0 8.0 0.00 0.00 0.00 86 1016.9
20220525104820 54 260 4.0 9.0 0.00 0.00 0.00 86 1016.8
20220525103331 54 240 4.0 9.0 0.00 0.00 0.00 86 1016.8
20220525101839 54 238 4.0 7.0 0.00 0.00 0.00 86 1016.6
20220525100330 54 224 5.0 11.0 0.00 0.00 0.00 85 1016.6
20220525094836 54 194 6.0 15.0 0.00 0.00 0.00 86 1016.2
20220525093325 53 177 3.0 10.0 0.00 0.00 0.00 85 1016.4
20220525091833 53 226 2.0 9.0 0.00 0.00 0.00 85 1016.6
20220525090318 52 245 2.0 7.0 0.00 0.00 0.00 81 1016.7
20220525084831 52 216 2.0 6.0 0.00 0.00 0.00 79 1016.7
20220525083319 53 237 1.0 7.0 0.00 0.00 0.00 76 1016.7
20220525081823 54 273 4.0 7.0 0.00 0.00 0.00 72 1017.0
20220525080336 55 254 4.0 7.0 0.00 0.00 0.00 70 1017.0
20220525074825 55 246 4.0 8.0 0.00 0.00 0.00 71 1017.0
20220525073334 55 277 4.0 8.0 0.00 0.00 0.00 71 1017.1
20220525071826 55 227 2.0 4.0 0.00 0.00 0.00 72 1017.1
20220525070334 56 231 2.0 4.0 0.00 0.00 0.00 71 1017.0
20220525064840 57 277 1.0 3.0 0.00 0.00 0.00 71 1017.2
20220525063314 57 277 2.0 3.0 0.00 0.00 0.00 70 1017.3
20220525061829 58 277 2.0 4.0 0.00 0.00 0.00 71 1017.2
20220525060340 58 281 1.0 4.0 0.00 0.00 0.00 72 1017.1
20220525054830 58 260 1.0 2.0 0.00 0.00 0.00 74 1017.1
20220525053322 59 230 1.0 3.0 0.00 0.00 0.00 72 1017.1
20220525051830 59 221 0.0 2.0 0.00 0.00 0.00 71 1016.9
20220525050323 59 221 1.0 3.0 0.00 0.00 0.00 71 1017.0
20220525044835 59 294 3.0 4.0 0.00 0.00 0.00 69 1017.0
20220525043327 60 294 2.0 5.0 0.00 0.00 0.00 69 1016.9
20220525041838 61 298 2.0 4.0 0.00 0.00 0.00 74 1016.8
20220525040328 61 333 2.0 3.0 0.00 0.00 0.00 73 1016.9
20220525034838 62 333 2.0 3.0 0.00 0.00 0.00 72 1016.8
20220525033327 62 7 0.0 2.0 0.00 0.00 0.00 72 1016.8
20220525031837 63 344 1.0 2.0 0.00 0.00 0.00 68 1016.8
20220525030328 64 333 1.0 3.0 0.00 0.00 0.00 69 1017.0
20220525024822 65 292 0.0 1.0 0.00 0.00 0.00 63 1017.0
20220525023332 65 292 2.0 4.0 0.00 0.00 0.00 62 1017.0
20220525021819 65 4 0.0 2.0 0.00 0.00 0.00 67 1016.9
20220525020330 66 4 0.0 3.0 0.00 0.00 0.00 67 1016.8
20220525014836 66 17 1.0 5.0 0.00 0.00 0.00 66 1016.8
20220525013340 66 23 3.0 6.0 0.00 0.00 0.00 66 1016.8
20220525011826 67 16 2.0 7.0 0.00 0.00 0.00 66 1016.9
20220525010334 68 17 1.0 6.0 0.00 0.00 0.00 65 1016.9
20220525004822 68 3 4.0 8.0 0.00 0.00 0.00 63 1016.8
20220525003333 69 18 2.0 7.0 0.00 0.00 0.00 63 1017.1
20220525001823 69 32 3.0 9.0 0.00 0.00 0.00 62 1017.1
20220525000329 68 346 2.0 10.0 0.00 0.00 0.00 62 1017.2
20220524234836 68 3 4.0 8.0 0.00 0.00 0.00 71 1016.9
20220524233325 67 360 2.0 7.0 0.00 0.00 0.00 64 1017.0
20220524231838 67 299 2.0 4.0 0.00 0.00 0.00 57 1017.1
20220524230327 67 299 2.0 4.0 0.00 0.00 0.00 54 1017.3
20220524224837 67 291 1.0 3.0 0.00 0.00 0.00 54 1017.3
20220524223327 67 235 2.0 3.0 0.00 0.00 0.00 53 1017.4
20220524221840 67 233 1.0 5.0 0.00 0.00 0.00 58 1017.5
20220524220329 67 250 2.0 5.0 0.00 0.00 0.00 55 1017.7
20220524214839 67 256 4.0 6.0 0.00 0.00 0.00 55 1017.9
20220524213329 67 272 2.0 8.0 0.00 0.00 0.00 54 1018.2
20220524211831 67 240 4.0 9.0 0.00 0.00 0.00 54 1018.5
20220524210322 68 215 1.0 5.0 0.00 0.00 0.00 56 1018.8
20220524204830 67 179 3.0 8.0 0.00 0.00 0.00 59 1018.8
20220524203338 65 148 3.0 7.0 0.00 0.00 0.00 59 1019.1
20220524201821 65 240 1.0 7.0 0.00 0.00 0.00 64 1019.3
20220524200332 65 240 2.0 9.0 0.00 0.00 0.00 61 1019.6
20220524194821 64 231 6.0 10.0 0.00 0.00 0.00 62 1019.7
20220524193330 64 192 2.0 7.0 0.00 0.00 0.00 65 1019.7
20220524191837 63 234 3.0 7.0 0.00 0.00 0.00 70 1019.8
20220524190327 63 233 2.0 5.0 0.00 0.00 0.00 67 1020.1
20220524184835 62 181 4.0 6.0 0.00 0.00 0.00 69 1019.9
20220524183321 61 159 2.0 5.0 0.00 0.00 0.00 70 1020.1
20220524181829 60 217 3.0 5.0 0.00 0.00 0.00 73 1020.3
20220524180337 60 248 1.0 3.0 0.00 0.00 0.00 73 1020.3
20220524174829 59 244 1.0 3.0 0.00 0.00 0.00 71 1020.4
20220524173338 59 221 3.0 5.0 0.00 0.00 0.00 72 1020.3
20220524171824 59 160 2.0 5.0 0.00 0.00 0.00 74 1020.2
20220524170329 58 187 2.0 4.0 0.00 0.00 0.00 76 1020.2
20220524164838 57 156 3.0 8.0 0.00 0.00 0.00 77 1020.4